SCP
-0 -0 -0 0 -0 -0 -0 0 0 0 0 0 0 -0 0 0 0 0 0 0 0 0 0 0 0 0 0 0 0 1 1 2 2 2 2 2 1 1 0 0 0 0 0 0
0 -0 0 -0 0 0 0 0 0 0 0 0 0 0 -0 0 0 0 0 0 0 0 0 0 0 0 0 0 0 0 1 1 1 1 1 1 1 1 0 0 0 0 0 0
0 -0 -0 0 0 0 0 0 -0 0 0 0 0 -0 -0 0 0 0 0 0 0 0 0 0 0 0 0 0 0 0 0 0 1 1 1 1 0 0 0 0 0 0 0 0
0 -0 0 0 0 -0 -0 -0 0 0 0 0 -0 0 -0 0 0 0 0 0 0 0 0 0 0 0 0 0 0 0 0 0 0 0 0 1 0 0 0 0 0 0 0 0
-0 -0 0 0 0 -0 0 0 0 0 0 0 0 0 0 0 0 0 0 0 0 0 0 0 0 0 0 0 0 0 0 0 0 0 0 0 0 0 0 0 0 0 0 0
-0 0 0 -0 0 0 0 0 0 0 0 0 -0 -0 0 0 0 0 0 0 0 0 0 0 0 0 0 0 0 0 0 0 0 0 0 0 0 0 0 0 0 0 0 0
-0 0 -0 0 0 0 0 0 0 0 0 0 0 -0 -0 0 0 0 0 0 1 0 0 0 0 0 0 0 0 0 0 0 0 0 0 0 -0 0 0 0 0 0 0 0
-0 0 0 0 0 0 -0 0 0 0 -0 -0 0 0 0 0 0 0 0 0 0 1 0 0 0 0 0 0 0 0 0 0 0 0 0 -0 -0 0 0 0 0 0 0 0
0 -0 0 0 0 -0 0 0 0 0 0 0 -0 0 0 0 0 0 0 0 0 1 0 0 0 0 0 0 0 0 0 0 0 0 0 0 0 0 0 0 0 0 0 0
-0 0 0 0 0 0 0 0 0 0 0 0 0 0 0 0 0 0 0 0 0 0 0 0 0 0 0 0 0 0 0 0 0 0 0 0 0 0 0 0 0 0 0 0
0 0 0 0 0 0 0 0 0 0 0 0 0 0 0 0 0 0 0 0 0 0 0 0 0 0 0 0 0 0 0 0 0 0 0 0 0 0 0 0 0 0 0 0
0 0 0 -0 0 0 0 -0 0 0 0 0 0 0 0 0 0 0 0 0 0 0 0 0 0 0 0 0 0 0 0 0 0 0 0 0 0 0 0 1 0 0 0 0
0 0 0 0 -0 0 0 0 0 0 0 0 0 0 0 0 0 0 0 0 0 0 0 0 0 0 0 0 0 0 0 0 0 0 0 0 0 0 0 0 1 0 0 0
0 0 0 0 0 -0 0 0 0 0 0 0 0 0 0 0 0 0 0 0 0 0 0 0 0 0 0 0 0 0 0 0 0 0 0 0 0 0 0 0 0 0 0 0
0 0 0 0 0 -0 -0 0 0 0 0 0 0 0 0 0 0 0 0 0 0 0 0 0 0 0 0 0 0 0 0 0 0 0 0 0 0 0 0 0 0 0 0 0
0 0 0 0 0 -0 -0 -0 -0 0 0 0 0 0 0 0 0 0 0 0 0 0 0 0 1 1 0 0 0 0 0 0 0 0 0 0 0 0 0 0 0 0 0 0
1 0 0 0 0 0 0 0 -0 0 0 0 0 0 0 0 0 0 0 0 0 0 0 0 0 0 0 0 1 0 0 0 0 0 0 0 0 0 0 0 0 0 0 0
1 1 0 0 0 0 0 0 0 0 0 0 0 0 0 0 0 0 0 0 0 0 0 0 0 0 0 0 0 0 0 0 0 0 0 0 0 0 0 0 0 0 0 0
0 1 1 1 0 0 0 0 0 0 0 0 0 0 0 0 0 0 0 0 0 0 0 0 0 0 0 0 0 0 0 0 0 0 0 0 0 0 0 0 0 0 0 0
0 0 1 0 0 0 0 0 0 0 0 0 0 0 0 0 0 0 0 0 0 0 0 0 0 0 0 0 0 0 0 0 0 0 0 0 0 0 0 0 0 0 0 0
0 0 1 0 0 0 0 0 0 0 0 0 0 0 0 0 1 1 0 0 0 0 0 0 0 0 0 0 0 0 0 0 0 0 0 0 0 0 0 0 0 0 0 0
0 0 0 0 0 0 0 0 0 1 0 0 0 0 0 1 1 1 0 0 0 0 0 0 0 0 0 0 0 0 0 0 0 0 0 0 0 0 0 0 0 0 0 0
0 0 0 1 0 0 0 0 0 1 1 0 0 0 0 1 0 0 0 0 0 0 0 0 0 0 0 0 0 0 0 0 0 0 0 0 0 0 0 0 0 0 0 0
0 0 1 1 0 0 0 0 0 1 0 0 0 0 0 0 0 1 0 0 0 0 0 0 0 0 0 0 0 0 0 0 0 0 0 0 0 0 0 0 0 0 0 0
0 0 1 0 0 0 0 0 0 0 0 0 0 0 0 0 0 0 0 0 0 0 0 0 0 0 0 0 0 0 0 0 0 0 0 0 0 0 -0 0 0 0 0 0
0 1 1 1 0 0 0 0 0 0 1 0 0 0 0 0 0 0 0 0 0 0 0 0 0 0 0 0 0 0 0 0 0 0 0 0 0 0 0 0 0 0 0 0
Wind_Speed_500mb
32 23 27 32 31 38 38 23 25 21 22 11 21 21 34 35 29 32 30 31 29 28 22 20 19 20 18 15 17 17 19 23 18 16 9 15 12 16 25 21 18 18 20 23
25 26 32 31 31 30 33 24 21 6 17 1 15 29 36 37 29 32 38 36 34 33 24 21 20 18 17 16 16 18 23 31 20 13 14 15 14 9 6 19 27 24 22 23
29 36 35 33 21 16 19 24 24 32 6 1 23 33 25 27 28 35 35 38 42 41 33 27 23 20 19 18 17 20 24 25 25 15 13 15 21 12 10 12 15 26 30 27
20 38 10 9 22 24 25 30 33 10 7 19 34 23 30 39 32 31 40 39 41 38 36 30 27 24 21 21 22 26 27 25 24 23 20 20 10 5 16 10 19 22 37 37
22 24 7 25 27 28 29 30 30 10 20 25 28 18 28 36 34 33 37 35 37 38 37 32 28 26 23 23 22 26 28 27 27 23 22 19 20 13 10 10 24 22 27 35
35 7 12 27 20 5 17 6 9 13 20 23 35 31 25 17 32 28 43 46 42 41 36 33 30 27 25 25 22 25 27 26 25 23 20 17 13 11 10 19 14 13 12 26
27 16 22 2 7 11 9 14 14 20 21 26 34 35 27 26 21 18 10 48 49 44 39 36 36 31 30 29 23 22 21 21 17 16 17 19 18 17 19 15 10 9 13 19
23 26 33 20 27 18 31 23 20 24 22 21 6 13 15 28 29 20 20 16 31 48 41 40 38 33 32 31 27 23 20 18 13 11 13 16 19 11 6 9 8 11 4 15
23 23 32 32 22 24 20 19 21 20 24 26 26 12 22 23 22 15 10 8 15 40 37 40 38 37 36 35 34 29 24 20 15 10 7 11 18 19 5 6 15 8 14 10
23 22 17 15 6 15 17 23 16 10 22 30 26 33 15 20 17 18 7 7 12 19 28 37 39 43 38 34 32 28 26 21 18 12 5 1 2 4 5 4 9 14 19 29
18 11 26 21 18 23 22 22 23 23 18 19 20 6 14 16 9 7 11 10 17 21 26 36 40 41 35 34 32 29 25 21 20 18 13 14 5 4 4 9 12 18 24 26
25 9 23 35 15 27 30 28 17 18 27 22 21 23 16 7 2 16 14 15 26 33 34 38 44 45 43 48 40 38 32 26 21 17 14 9 6 6 8 11 19 29 34 36
13 13 21 31 31 15 22 31 24 21 16 24 23 22 28 8 4 7 14 21 25 38 37 36 40 46 50 44 37 38 32 24 18 22 21 18 11 10 18 23 27 35 41 44
13 12 22 26 30 26 24 29 34 29 22 26 32 37 29 15 19 20 16 15 26 26 19 19 29 32 31 21 9 13 15 25 28 22 15 16 20 22 26 29 34 30 31 33
4 21 32 38 40 46 48 39 30 34 34 32 30 36 31 29 13 18 23 27 28 17 22 29 37 12 31 37 38 22 25 18 19 25 22 17 21 20 28 20 24 34 37 44
16 16 27 42 46 51 56 47 46 35 38 40 37 34 27 35 34 35 13 28 17 15 5 16 24 35 32 32 28 22 16 9 4 3 1 7 18 14 20 23 31 28 25 30
22 21 23 35 37 44 52 43 44 38 42 37 40 35 27 25 5 5 7 4 6 25 24 27 27 29 26 20 29 24 20 16 15 11 13 10 9 16 22 21 19 26 32 39
20 27 21 24 30 49 33 36 40 30 27 27 29 30 37 36 12 10 4 12 36 37 32 30 26 23 17 16 11 14 11 10 10 8 8 8 7 14 19 21 27 32 35 36
29 24 19 26 27 41 41 30 16 28 36 28 32 30 40 8 15 13 19 39 45 40 37 33 29 28 18 15 17 15 14 13 10 5 1 8 12 9 24 32 34 35 39 35
34 27 23 23 28 49 28 36 44 15 28 29 37 25 32 11 12 14 42 51 50 43 39 37 30 29 22 15 15 10 10 7 9 3 7 9 10 20 19 21 28 35 27 27
31 31 32 25 29 43 35 37 6 26 20 10 11 25 26 9 4 55 55 49 42 38 35 31 28 31 23 15 12 11 12 10 4 1 6 12 24 24 20 25 26 26 26 28
22 18 13 12 28 46 21 35 38 5 4 1 8 16 13 45 51 53 46 45 40 36 33 30 25 25 19 15 12 12 13 8 5 8 6 16 19 17 14 17 18 22 25 29
27 19 23 24 17 25 53 56 34 30 19 14 14 18 29 46 47 50 49 45 40 34 32 27 24 21 17 14 12 9 6 5 5 2 5 6 10 9 9 13 23 21 27 39
32 15 15 18 21 22 74 54 35 30 29 19 22 26 39 46 49 53 51 42 39 36 26 20 20 24 21 11 9 11 6 4 3 9 6 4 7 6 14 8 16 18 25 27
27 32 23 23 18 25 56 67 28 33 30 31 32 34 39 52 50 53 57 45 40 33 22 20 23 27 18 10 8 4 8 10 11 8 4 1 3 5 6 8 13 14 23 28
40 24 11 8 23 17 39 51 45 66 45 35 33 37 46 44 58 54 46 45 37 32 29 24 19 15 13 11 10 6 7 10 9 10 7 9 3 3 9 8 18 20 25 22
Wind_Direction_500mb
207 226 226 229 231 249 271 296 223 255 83 164 205 243 175 181 189 187 192 178 179 163 155 154 150 141 135 142 144 138 132 130 135 132 159 140 41 30 16 4 2 352 348 351
240 224 248 236 253 236 269 272 286 174 108 160 280 258 257 172 196 224 189 187 187 153 165 168 159 148 138 139 137 135 137 134 120 115 124 121 122 108 42 1 354 360 359 359
237 244 202 246 238 258 260 256 258 266 130 303 265 259 246 209 192 217 205 195 188 170 178 176 170 161 148 139 139 135 126 132 128 104 84 74 86 106 118 11 345 352 2 7
230 254 171 246 249 242 247 230 253 302 185 256 211 247 228 220 193 205 217 196 184 170 175 176 174 167 161 149 147 137 125 117 125 116 124 121 146 49 82 342 29 6 3 4
235 235 182 238 234 228 249 332 214 241 253 267 267 234 273 174 188 209 200 198 184 173 172 179 180 172 164 154 147 140 132 120 112 102 111 125 116 73 60 73 46 26 4 346
267 234 199 239 213 216 57 289 285 257 271 257 251 262 275 251 178 204 196 199 190 181 174 178 179 173 170 162 153 146 134 122 110 99 93 87 100 130 79 58 92 51 350 337
231 204 255 18 258 183 281 256 242 234 233 243 247 228 238 131 112 62 176 184 176 175 176 178 174 178 178 172 166 158 142 126 113 97 87 88 83 83 105 104 73 101 10 343
225 213 195 179 244 218 210 235 254 269 282 309 80 285 285 120 130 123 126 137 179 174 179 180 181 187 187 184 179 175 162 151 145 128 112 105 89 88 46 68 71 19 27 6
290 289 185 177 207 252 273 251 257 279 300 287 282 216 127 114 97 85 114 168 199 164 174 179 183 192 190 187 188 190 183 180 170 168 148 127 151 162 242 44 75 287 310 340
254 291 171 175 236 253 254 284 292 208 254 267 270 263 104 156 151 127 131 179 185 177 184 186 191 193 186 194 196 188 204 196 188 192 176 254 17 62 1 354 333 336 333 326
249 250 277 154 195 246 222 232 247 275 290 302 297 276 140 109 105 121 136 188 176 189 203 194 194 183 196 199 198 192 197 204 203 191 191 197 172 232 281 313 329 320 310 300
200 249 254 270 255 230 234 258 236 223 240 248 260 267 62 97 304 160 179 193 190 190 200 202 193 188 201 203 203 199 194 200 209 210 208 220 233 248 279 282 277 291 291 298
217 216 248 256 267 212 240 243 250 267 288 276 278 279 305 151 251 236 211 215 210 184 198 206 205 206 198 203 193 197 186 192 211 226 219 241 243 231 256 271 282 289 293 303
3 257 250 248 254 273 208 253 249 255 247 254 251 264 269 218 200 215 227 223 252 182 171 184 204 200 217 196 168 176 147 176 192 200 194 174 200 227 250 283 302 309 318 320
226 254 255 256 260 274 280 268 225 247 247 250 259 270 287 302 303 190 230 214 220 190 193 207 229 251 236 214 206 205 215 208 205 216 231 251 264 284 300 321 338 338 336 332
196 247 257 262 262 265 267 264 268 256 267 274 262 266 281 275 250 264 170 175 190 226 183 110 111 111 121 116 127 140 138 127 168 73 302 293 349 2 347 339 320 322 324 328
204 210 230 259 268 270 259 263 267 271 250 262 276 289 297 287 261 285 245 271 156 118 116 107 103 95 98 112 122 105 123 100 113 111 104 56 23 322 325 335 325 320 328 327
222 217 232 252 266 256 271 266 275 299 302 298 300 307 302 280 149 144 191 208 130 126 129 127 120 111 119 129 107 119 126 91 99 103 117 325 323 334 325 314 321 326 322 322
243 242 221 239 243 259 261 265 264 268 273 277 276 279 278 50 104 112 141 135 132 136 140 132 138 141 143 130 131 129 131 117 113 133 245 24 331 303 316 326 328 330 324 325
254 246 233 231 235 250 263 264 275 304 267 247 260 257 272 234 207 154 136 139 137 137 137 138 141 143 147 142 132 147 145 127 129 280 341 271 289 330 333 318 326 329 329 330
223 236 222 230 247 259 263 268 207 249 280 326 294 304 247 207 139 143 136 131 138 141 140 143 162 152 149 154 143 146 144 124 116 290 298 306 322 335 324 329 340 342 356 3
226 256 257 309 263 252 280 259 247 230 116 356 283 289 177 122 125 132 135 138 142 144 146 155 144 141 148 142 143 152 169 151 300 249 296 327 355 353 337 346 7 5 11 355
261 177 222 206 199 256 305 311 298 200 172 209 219 238 157 140 143 143 145 147 152 151 160 154 151 146 145 142 144 85 170 197 81 140 14 8 341 356 22 12 21 24 9 357
271 234 209 205 220 262 274 261 241 195 216 213 202 212 166 159 160 152 149 155 159 158 152 162 168 161 154 169 174 187 235 263 279 281 300 346 305 25 20 39 21 9 8 15
287 300 301 254 289 251 244 281 232 219 218 205 197 196 185 169 162 153 153 155 162 157 162 177 185 172 161 184 203 181 213 258 234 228 219 90 198 354 4 354 334 336 346 6
269 276 313 317 322 207 264 297 309 296 180 198 178 193 171 161 155 160 149 156 161 159 166 165 165 158 163 174 177 211 235 259 207 201 192 172 178 338 334 338 336 328 322 332
Wind_Speed_850mb
32 23 27 32 31 38 38 23 25 21 22 11 21 21 34 35 29 32 30 31 29 28 22 20 19 20 18 15 17 17 19 23 18 16 9 15 12 16 25 21 18 18 20 23
25 26 32 31 31 30 33 24 21 6 17 1 15 29 36 37 29 32 38 36 34 33 24 21 20 18 17 16 16 18 23 31 20 13 14 15 14 9 6 19 27 24 22 23
29 36 35 33 21 16 19 24 24 32 6 1 23 33 25 27 28 35 35 38 42 41 33 27 23 20 19 18 17 20 24 25 25 15 13 15 21 12 10 12 15 26 30 27
20 38 10 9 22 24 25 30 33 10 7 19 34 23 30 39 32 31 40 39 41 38 36 30 27 24 21 21 22 26 27 25 24 23 20 20 10 5 16 10 19 22 37 37
22 24 7 25 27 28 29 30 30 10 20 25 28 18 28 36 34 33 37 35 37 38 37 32 28 26 23 23 22 26 28 27 27 23 22 19 20 13 10 10 24 22 27 35
35 7 12 27 20 5 17 6 9 13 20 23 35 31 25 17 32 28 43 46 42 41 36 33 30 27 25 25 22 25 27 26 25 23 20 17 13 11 10 19 14 13 12 26
27 16 22 2 7 11 9 14 14 20 21 26 34 35 27 26 21 18 10 48 49 44 39 36 36 31 30 29 23 22 21 21 17 16 17 19 18 17 19 15 10 9 13 19
23 26 33 20 27 18 31 23 20 24 22 21 6 13 15 28 29 20 20 16 31 48 41 40 38 33 32 31 27 23 20 18 13 11 13 16 19 11 6 9 8 11 4 15
23 23 32 32 22 24 20 19 21 20 24 26 26 12 22 23 22 15 10 8 15 40 37 40 38 37 36 35 34 29 24 20 15 10 7 11 18 19 5 6 15 8 14 10
23 22 17 15 6 15 17 23 16 10 22 30 26 33 15 20 17 18 7 7 12 19 28 37 39 43 38 34 32 28 26 21 18 12 5 1 2 4 5 4 9 14 19 29
18 11 26 21 18 23 22 22 23 23 18 19 20 6 14 16 9 7 11 10 17 21 26 36 40 41 35 34 32 29 25 21 20 18 13 14 5 4 4 9 12 18 24 26
25 9 23 35 15 27 30 28 17 18 27 22 21 23 16 7 2 16 14 15 26 33 34 38 44 45 43 48 40 38 32 26 21 17 14 9 6 6 8 11 19 29 34 36
13 13 21 31 31 15 22 31 24 21 16 24 23 22 28 8 4 7 14 21 25 38 37 36 40 46 50 44 37 38 32 24 18 22 21 18 11 10 18 23 27 35 41 44
13 12 22 26 30 26 24 29 34 29 22 26 32 37 29 15 19 20 16 15 26 26 19 19 29 32 31 21 9 13 15 25 28 22 15 16 20 22 26 29 34 30 31 33
4 21 32 38 40 46 48 39 30 34 34 32 30 36 31 29 13 18 23 27 28 17 22 29 37 12 31 37 38 22 25 18 19 25 22 17 21 20 28 20 24 34 37 44
16 16 27 42 46 51 56 47 46 35 38 40 37 34 27 35 34 35 13 28 17 15 5 16 24 35 32 32 28 22 16 9 4 3 1 7 18 14 20 23 31 28 25 30
22 21 23 35 37 44 52 43 44 38 42 37 40 35 27 25 5 5 7 4 6 25 24 27 27 29 26 20 29 24 20 16 15 11 13 10 9 16 22 21 19 26 32 39
20 27 21 24 30 49 33 36 40 30 27 27 29 30 37 36 12 10 4 12 36 37 32 30 26 23 17 16 11 14 11 10 10 8 8 8 7 14 19 21 27 32 35 36
29 24 19 26 27 41 41 30 16 28 36 28 32 30 40 8 15 13 19 39 45 40 37 33 29 28 18 15 17 15 14 13 10 5 1 8 12 9 24 32 34 35 39 35
34 27 23 23 28 49 28 36 44 15 28 29 37 25 32 11 12 14 42 51 50 43 39 37 30 29 22 15 15 10 10 7 9 3 7 9 10 20 19 21 28 35 27 27
31 31 32 25 29 43 35 37 6 26 20 10 11 25 26 9 4 55 55 49 42 38 35 31 28 31 23 15 12 11 12 10 4 1 6 12 24 24 20 25 26 26 26 28
22 18 13 12 28 46 21 35 38 5 4 1 8 16 13 45 51 53 46 45 40 36 33 30 25 25 19 15 12 12 13 8 5 8 6 16 19 17 14 17 18 22 25 29
27 19 23 24 17 25 53 56 34 30 19 14 14 18 29 46 47 50 49 45 40 34 32 27 24 21 17 14 12 9 6 5 5 2 5 6 10 9 9 13 23 21 27 39
32 15 15 18 21 22 74 54 35 30 29 19 22 26 39 46 49 53 51 42 39 36 26 20 20 24 21 11 9 11 6 4 3 9 6 4 7 6 14 8 16 18 25 27
27 32 23 23 18 25 56 67 28 33 30 31 32 34 39 52 50 53 57 45 40 33 22 20 23 27 18 10 8 4 8 10 11 8 4 1 3 5 6 8 13 14 23 28
40 24 11 8 23 17 39 51 45 66 45 35 33 37 46 44 58 54 46 45 37 32 29 24 19 15 13 11 10 6 7 10 9 10 7 9 3 3 9 8 18 20 25 22
Wind_Direction_850mb
207 226 226 229 231 249 271 296 223 255 83 164 205 243 175 181 189 187 192 178 179 163 155 154 150 141 135 142 144 138 132 130 135 132 159 140 41 30 16 4 2 352 348 351
240 224 248 236 253 236 269 272 286 174 108 160 280 258 257 172 196 224 189 187 187 153 165 168 159 148 138 139 137 135 137 134 120 115 124 121 122 108 42 1 354 360 359 359
237 244 202 246 238 258 260 256 258 266 130 303 265 259 246 209 192 217 205 195 188 170 178 176 170 161 148 139 139 135 126 132 128 104 84 74 86 106 118 11 345 352 2 7
230 254 171 246 249 242 247 230 253 302 185 256 211 247 228 220 193 205 217 196 184 170 175 176 174 167 161 149 147 137 125 117 125 116 124 121 146 49 82 342 29 6 3 4
235 235 182 238 234 228 249 332 214 241 253 267 267 234 273 174 188 209 200 198 184 173 172 179 180 172 164 154 147 140 132 120 112 102 111 125 116 73 60 73 46 26 4 346
267 234 199 239 213 216 57 289 285 257 271 257 251 262 275 251 178 204 196 199 190 181 174 178 179 173 170 162 153 146 134 122 110 99 93 87 100 130 79 58 92 51 350 337
231 204 255 18 258 183 281 256 242 234 233 243 247 228 238 131 112 62 176 184 176 175 176 178 174 178 178 172 166 158 142 126 113 97 87 88 83 83 105 104 73 101 10 343
225 213 195 179 244 218 210 235 254 269 282 309 80 285 285 120 130 123 126 137 179 174 179 180 181 187 187 184 179 175 162 151 145 128 112 105 89 88 46 68 71 19 27 6
290 289 185 177 207 252 273 251 257 279 300 287 282 216 127 114 97 85 114 168 199 164 174 179 183 192 190 187 188 190 183 180 170 168 148 127 151 162 242 44 75 287 310 340
254 291 171 175 236 253 254 284 292 208 254 267 270 263 104 156 151 127 131 179 185 177 184 186 191 193 186 194 196 188 204 196 188 192 176 254 17 62 1 354 333 336 333 326
249 250 277 154 195 246 222 232 247 275 290 302 297 276 140 109 105 121 136 188 176 189 203 194 194 183 196 199 198 192 197 204 203 191 191 197 172 232 281 313 329 320 310 300
200 249 254 270 255 230 234 258 236 223 240 248 260 267 62 97 304 160 179 193 190 190 200 202 193 188 201 203 203 199 194 200 209 210 208 220 233 248 279 282 277 291 291 298
217 216 248 256 267 212 240 243 250 267 288 276 278 279 305 151 251 236 211 215 210 184 198 206 205 206 198 203 193 197 186 192 211 226 219 241 243 231 256 271 282 289 293 303
3 257 250 248 254 273 208 253 249 255 247 254 251 264 269 218 200 215 227 223 252 182 171 184 204 200 217 196 168 176 147 176 192 200 194 174 200 227 250 283 302 309 318 320
226 254 255 256 260 274 280 268 225 247 247 250 259 270 287 302 303 190 230 214 220 190 193 207 229 251 236 214 206 205 215 208 205 216 231 251 264 284 300 321 338 338 336 332
196 247 257 262 262 265 267 264 268 256 267 274 262 266 281 275 250 264 170 175 190 226 183 110 111 111 121 116 127 140 138 127 168 73 302 293 349 2 347 339 320 322 324 328
204 210 230 259 268 270 259 263 267 271 250 262 276 289 297 287 261 285 245 271 156 118 116 107 103 95 98 112 122 105 123 100 113 111 104 56 23 322 325 335 325 320 328 327
222 217 232 252 266 256 271 266 275 299 302 298 300 307 302 280 149 144 191 208 130 126 129 127 120 111 119 129 107 119 126 91 99 103 117 325 323 334 325 314 321 326 322 322
243 242 221 239 243 259 261 265 264 268 273 277 276 279 278 50 104 112 141 135 132 136 140 132 138 141 143 130 131 129 131 117 113 133 245 24 331 303 316 326 328 330 324 325
254 246 233 231 235 250 263 264 275 304 267 247 260 257 272 234 207 154 136 139 137 137 137 138 141 143 147 142 132 147 145 127 129 280 341 271 289 330 333 318 326 329 329 330
223 236 222 230 247 259 263 268 207 249 280 326 294 304 247 207 139 143 136 131 138 141 140 143 162 152 149 154 143 146 144 124 116 290 298 306 322 335 324 329 340 342 356 3
226 256 257 309 263 252 280 259 247 230 116 356 283 289 177 122 125 132 135 138 142 144 146 155 144 141 148 142 143 152 169 151 300 249 296 327 355 353 337 346 7 5 11 355
261 177 222 206 199 256 305 311 298 200 172 209 219 238 157 140 143 143 145 147 152 151 160 154 151 146 145 142 144 85 170 197 81 140 14 8 341 356 22 12 21 24 9 357
271 234 209 205 220 262 274 261 241 195 216 213 202 212 166 159 160 152 149 155 159 158 152 162 168 161 154 169 174 187 235 263 279 281 300 346 305 25 20 39 21 9 8 15
287 300 301 254 289 251 244 281 232 219 218 205 197 196 185 169 162 153 153 155 162 157 162 177 185 172 161 184 203 181 213 258 234 228 219 90 198 354 4 354 334 336 346 6
269 276 313 317 322 207 264 297 309 296 180 198 178 193 171 161 155 160 149 156 161 159 166 165 165 158 163 174 177 211 235 259 207 201 192 172 178 338 334 338 336 328 322 332